K4DNM Weather Reports


time (UTC)temp
C
wind
direction
speed
KPH
gust
KPH
rain 1hr
cm
rain 24hr
cm
rain mn
cm
humidity
%
barometer
mb
20260510211056 29 239 1.6 6.4 0.00 0.00 0.00 41 1012.6
20260510210555 28 140 1.6 8.0 0.00 0.00 0.00 41 1012.7
20260510210108 28 0 1.6 8.0 0.00 0.00 0.00 42 1012.6
20260510205554 28 318 3.2 6.4 0.00 0.00 0.00 44 1012.6
20260510205053 28 0 1.6 6.4 0.00 0.00 0.00 45 1012.6
20260510204553 28 150 1.6 4.8 0.00 0.00 0.00 42 1012.5
20260510204254 28 285 1.6 4.8 0.00 0.00 0.00 43 1012.8
20260510204145 28 0 0.0 3.2 0.00 0.00 0.00 41 1012.7
20260510203657 28 285 1.6 4.8 0.00 0.00 0.00 43 1012.8
20260510203311 29 0 1.6 8.0 0.00 0.00 0.00 41 1012.7
20260510203156 29 0 1.6 8.0 0.00 0.00 0.00 41 1012.7
20260510202553 29 171 3.2 11.3 0.00 0.00 0.00 40 1012.7
20260510202308 29 314 3.2 11.3 0.00 0.00 0.00 40 1012.6
20260510202154 29 314 3.2 11.3 0.00 0.00 0.00 40 1012.6
20260510201811 28 335 3.2 6.4 0.00 0.00 0.00 40 1012.6
20260510201656 28 335 3.2 6.4 0.00 0.00 0.00 40 1012.6
20260510201050 28 175 3.2 6.4 0.00 0.00 0.00 44 1012.5
20260510200551 28 102 3.2 6.4 0.00 0.00 0.00 42 1012.5
20260510200322 28 194 1.6 6.4 0.00 0.00 0.00 44 1012.7
20260510200206 28 194 1.6 6.4 0.00 0.00 0.00 44 1012.7
20260510200026 28 203 0.0 4.8 0.00 0.00 0.00 45 1012.7
20260510195652 28 203 0.0 4.8 0.00 0.00 0.00 45 1012.7
20260510195527 28 0 1.6 3.2 0.00 0.00 0.00 45 1012.8
20260510195152 28 0 1.6 3.2 0.00 0.00 0.00 45 1012.8
20260510194547 28 0 1.6 4.8 0.00 0.00 0.00 46 1012.8
20260510194306 29 0 1.6 4.8 0.00 0.00 0.00 44 1012.8
20260510194152 29 0 1.6 4.8 0.00 0.00 0.00 44 1012.8
20260510193546 29 170 1.6 8.0 0.00 0.00 0.00 44 1012.8
20260510193047 30 72 1.6 8.0 0.00 0.00 0.00 42 1012.8
20260510192547 30 324 1.6 4.8 0.00 0.00 0.00 45 1012.9
20260510192315 30 0 1.6 4.8 0.00 0.00 0.00 42 1012.9
20260510192151 30 0 1.6 4.8 0.00 0.00 0.00 42 1012.9
20260510191809 30 355 1.6 4.8 0.00 0.00 0.00 43 1013.0
20260510191651 30 355 1.6 4.8 0.00 0.00 0.00 43 1013.0
20260510191048 29 325 1.6 4.8 0.00 0.00 0.00 45 1013.1
20260510190548 29 272 1.6 4.8 0.00 0.00 0.00 44 1013.2
20260510190059 29 216 1.6 4.8 0.00 0.00 0.00 44 1013.3
20260510185546 28 314 1.6 3.2 0.00 0.00 0.00 49 1013.3
20260510185047 28 343 1.6 4.8 0.00 0.00 0.00 49 1013.4
20260510184546 28 0 1.6 8.0 0.00 0.00 0.00 49 1013.5
20260510184308 29 0 3.2 8.0 0.00 0.00 0.00 47 1013.5
20260510184151 29 0 3.2 8.0 0.00 0.00 0.00 47 1013.5
20260510183547 29 149 1.6 8.0 0.00 0.00 0.00 48 1013.4
20260510183313 29 62 1.6 4.8 0.00 0.00 0.00 49 1013.3
20260510183151 29 62 1.6 4.8 0.00 0.00 0.00 49 1013.3
20260510182547 28 0 0.0 4.8 0.00 0.00 0.00 47 1013.4
20260510182300 28 131 1.6 6.4 0.00 0.00 0.00 48 1013.6
20260510182148 28 131 1.6 6.4 0.00 0.00 0.00 48 1013.6
20260510181543 29 0 1.6 6.4 0.00 0.00 0.00 47 1013.7
20260510181040 29 3 1.6 6.4 0.00 0.00 0.00 47 1013.6
20260510180541 28 347 1.6 6.4 0.00 0.00 0.00 47 1013.6
20260510180052 28 221 1.6 6.4 0.00 0.00 0.00 48 1013.6
20260510175538 28 51 1.6 4.8 0.00 0.00 0.00 48 1013.6
20260510175038 28 218 1.6 6.4 0.00 0.00 0.00 48 1013.6
20260510174759 28 0 1.6 6.4 0.00 0.00 0.00 50 1013.6
20260510174642 28 0 1.6 6.4 0.00 0.00 0.00 50 1013.6
20260510174314 28 61 3.2 6.4 0.00 0.00 0.00 49 1013.6
20260510174157 28 61 3.2 6.4 0.00 0.00 0.00 49 1013.6
20260510173540 28 26 3.2 8.0 0.00 0.00 0.00 48 1013.7
20260510173038 28 291 3.2 8.0 0.00 0.00 0.00 49 1013.6
20260510172538 28 261 3.2 8.0 0.00 0.00 0.00 50 1013.6
20260510172037 28 220 4.8 9.7 0.00 0.00 0.00 51 1013.7
20260510171537 28 161 3.2 9.7 0.00 0.00 0.00 51 1013.7
20260510171035 27 156 1.6 6.4 0.00 0.00 0.00 51 1013.7
20260510171026 27 295 0.0 4.8 0.00 0.00 0.00 53 1013.7
20260510170641 27 295 0.0 4.8 0.00 0.00 0.00 53 1013.7
20260510170302 27 0 1.6 4.8 0.00 0.00 0.00 54 1013.8
20260510170140 27 0 1.6 4.8 0.00 0.00 0.00 54 1013.8
20260510165533 27 93 3.2 6.4 0.00 0.00 0.00 53 1013.7
20260510165034 27 0 3.2 8.0 0.00 0.00 0.00 54 1013.8
20260510164534 27 109 3.2 9.7 0.00 0.00 0.00 53 1013.9
20260510164034 27 84 3.2 9.7 0.00 0.00 0.00 53 1013.9
20260510163534 27 77 3.2 8.0 0.00 0.00 0.00 54 1013.9
20260510163034 27 143 3.2 11.3 0.00 0.00 0.00 54 1013.9
20260510162531 26 127 4.8 16.1 0.00 0.00 0.00 54 1013.9
20260510162031 27 105 4.8 16.1 0.00 0.00 0.00 57 1014.0
20260510161540 27 113 3.2 12.9 0.00 0.00 0.00 54 1014.0
20260510161028 27 109 1.6 4.8 0.00 0.00 0.00 53 1014.0
20260510160749 27 271 3.2 8.0 0.00 0.00 0.00 54 1014.0
20260510160632 27 271 3.2 8.0 0.00 0.00 0.00 54 1014.0
20260510160250 27 147 3.2 8.0 0.00 0.00 0.00 53 1014.1
20260510160133 27 147 3.2 8.0 0.00 0.00 0.00 53 1014.1
20260510155528 27 35 1.6 8.0 0.00 0.00 0.00 54 1014.2
20260510155026 26 34 1.6 6.4 0.00 0.00 0.00 54 1014.3
20260510154527 26 0 1.6 6.4 0.00 0.00 0.00 55 1014.4
20260510154026 26 179 3.2 6.4 0.00 0.00 0.00 59 1014.3
20260510153526 26 78 3.2 11.3 0.00 0.00 0.00 60 1014.3
20260510153027 26 62 3.2 12.9 0.00 0.00 0.00 60 1014.3
20260510152527 26 95 3.2 12.9 0.00 0.00 0.00 61 1014.2
20260510152025 26 101 1.6 8.0 0.00 0.00 0.00 58 1014.2
20260510151524 26 326 1.6 8.0 0.00 0.00 0.00 58 1014.2
20260510151023 25 0 3.2 8.0 0.00 0.00 0.00 65 1014.2
20260510150522 25 130 3.2 8.0 0.00 0.00 0.00 62 1014.2
20260510150024 25 0 3.2 8.0 0.00 0.00 0.00 65 1014.3
20260510145743 25 106 3.2 11.3 0.00 0.00 0.00 61 1014.2
20260510145624 25 106 3.2 11.3 0.00 0.00 0.00 61 1014.2
20260510145019 26 14 3.2 11.3 0.00 0.00 0.00 64 1014.2
20260510145002 26 66 1.6 6.4 0.00 0.00 0.00 62 1014.2
20260510144623 26 66 1.6 6.4 0.00 0.00 0.00 62 1014.2
20260510144018 26 0 1.6 4.8 0.00 0.00 0.00 62 1014.2
20260510143518 26 214 1.6 4.8 0.00 0.00 0.00 64 1014.1
20260510143018 26 290 1.6 4.8 0.00 0.00 0.00 66 1014.1
20260510142735 26 0 1.6 4.8 0.00 0.00 0.00 64 1014.2
20260510142621 26 0 1.6 4.8 0.00 0.00 0.00 64 1014.2
20260510142240 26 198 1.6 4.8 0.00 0.00 0.00 64 1014.2
20260510142121 26 198 1.6 4.8 0.00 0.00 0.00 64 1014.2
20260510141515 26 223 0.0 4.8 0.00 0.00 0.00 65 1014.2
20260510141015 25 0 0.0 4.8 0.00 0.00 0.00 65 1014.2
20260510140513 25 0 1.6 4.8 0.00 0.00 0.00 65 1014.3
20260510140010 25 192 1.6 4.8 0.00 0.00 0.00 66 1014.3
20260510135508 25 181 1.6 4.8 0.00 0.00 0.00 65 1014.2
20260510135233 25 0 1.6 3.2 0.00 0.00 0.00 68 1014.2
20260510135115 25 0 1.6 3.2 0.00 0.00 0.00 68 1014.2
20260510134505 25 146 0.0 4.8 0.00 0.00 0.00 67 1014.2
20260510134232 24 0 0.0 4.8 0.00 0.03 0.00 69 1014.1
20260510134111 24 0 0.0 4.8 0.00 0.03 0.00 69 1014.1
20260510133505 24 0 1.6 6.4 0.00 0.03 0.00 72 1014.0
20260510133007 23 251 1.6 6.4 0.00 0.03 0.00 74 1014.0
20260510132723 23 0 1.6 6.4 0.00 0.03 0.00 74 1014.0
20260510132610 23 0 1.6 6.4 0.00 0.03 0.00 74 1014.0
20260510132005 23 144 1.6 6.4 0.00 0.03 0.00 75 1014.0
20260510131505 23 287 1.6 4.8 0.00 0.03 0.00 77 1014.1
20260510131443 23 173 1.6 4.8 0.00 0.03 0.00 75 1014.0
20260510131107 23 173 1.6 4.8 0.00 0.03 0.00 75 1014.0
20260510130504 23 17 0.0 4.8 0.00 0.03 0.00 76 1013.9
20260510130004 22 110 0.0 4.8 0.00 0.03 0.00 77 1013.9
20260510125728 22 109 0.0 3.2 0.00 0.03 0.00 81 1013.9
20260510125608 22 109 0.0 3.2 0.00 0.03 0.00 81 1013.9
20260510125004 21 34 0.0 3.2 0.00 0.03 0.00 80 1014.0
20260510124727 21 125 0.0 3.2 0.00 0.03 0.00 86 1013.9
20260510124504 21 125 0.0 3.2 0.00 0.03 0.00 86 1013.9
20260510124003 20 0 0.0 3.2 0.00 0.03 0.00 92 1013.9
20260510123504 20 0 1.6 3.2 0.00 0.03 0.00 96 1013.9
20260510123005 19 96 0.0 3.2 0.00 0.03 0.00 97 1013.9
20260510122503 18 184 0.0 3.2 0.00 0.03 0.00 98 1013.8
20260510122222 18 84 0.0 3.2 0.00 0.03 0.00 99 1013.8
20260510122104 18 84 0.0 3.2 0.00 0.03 0.00 99 1013.8
20260510121717 17 98 0.0 3.2 0.00 0.03 0.00 99 1013.9
20260510121604 17 98 0.0 3.2 0.00 0.03 0.00 99 1013.9
20260510120958 17 59 0.0 1.6 0.00 0.03 0.00 100 1013.9
20260510120459 17 187 0.0 1.6 0.00 0.03 0.00 100 1013.8
20260510120222 16 63 0.0 1.6 0.00 0.03 0.00 100 1013.7
20260510120059 16 63 0.0 1.6 0.00 0.03 0.00 100 1013.7
20260510115941 16 0 0.0 1.6 0.00 0.03 0.00 99 1013.5
20260510115600 16 0 0.0 1.6 0.00 0.03 0.00 99 1013.5
20260510114956 16 0 0.0 1.6 0.00 0.03 0.00 100 1013.4
20260510114722 16 0 0.0 1.6 0.00 0.03 0.00 100 1013.3
20260510114455 16 0 0.0 1.6 0.00 0.03 0.00 100 1013.3
20260510113956 16 61 0.0 1.6 0.00 0.03 0.00 99 1013.3
20260510113455 16 183 0.0 1.6 0.00 0.03 0.00 100 1013.3
20260510113217 16 0 0.0 1.6 0.00 0.03 0.00 99 1013.2
20260510113101 16 0 0.0 1.6 0.00 0.03 0.00 99 1013.2
20260510112704 15 0 0.0 1.6 0.00 0.03 0.00 99 1013.2
20260510112546 15 0 0.0 1.6 0.00 0.03 0.00 99 1013.2
20260510112206 15 0 0.0 1.6 0.00 0.03 0.00 100 1013.1
20260510111942 15 0 0.0 1.6 0.00 0.03 0.00 100 1013.1
20260510111658 15 72 1.6 1.6 0.00 0.03 0.00 99 1013.2
20260510111428 15 72 1.6 1.6 0.00 0.03 0.00 99 1013.2
20260510110931 15 0 0.0 1.6 0.00 0.03 0.00 100 1013.0
20260510110413 15 130 0.0 1.6 0.00 0.03 0.00 99 1013.0
20260510110133 15 0 0.0 1.6 0.00 0.03 0.00 99 1013.0
20260510110017 15 0 0.0 1.6 0.00 0.03 0.00 99 1013.0
20260510105412 15 0 0.0 3.2 0.00 0.03 0.00 99 1012.9
20260510104913 15 0 1.6 6.4 0.00 0.03 0.00 99 1012.8
20260510104637 15 222 0.0 6.4 0.00 0.03 0.00 99 1012.7
20260510104413 15 222 0.0 6.4 0.00 0.03 0.00 99 1012.7
20260510103913 15 0 0.0 3.2 0.00 0.03 0.00 100 1012.5
20260510103413 15 189 1.6 6.4 0.00 0.03 0.00 100 1012.5
20260510103357 15 212 1.6 6.4 0.00 0.03 0.00 99 1012.4
20260510103246 15 212 1.6 6.4 0.00 0.03 0.00 99 1012.4
20260510102413 15 182 0.0 1.6 0.00 0.03 0.00 99 1012.3
20260510101858 15 184 0.0 3.2 0.00 0.03 0.00 99 1012.2
20260510101358 15 0 1.6 4.8 0.00 0.03 0.00 99 1012.2
20260510101123 15 228 0.0 4.8 0.00 0.03 0.00 99 1012.2
20260510101003 15 228 0.0 4.8 0.00 0.03 0.00 99 1012.2
20260510100636 15 0 0.0 3.2 0.00 0.03 0.00 99 1012.1
20260510100518 15 0 0.0 3.2 0.00 0.03 0.00 99 1012.1
20260510095845 15 136 1.6 4.8 0.00 0.03 0.00 99 1012.0
20260510095343 15 0 1.6 4.8 0.00 0.03 0.00 99 1011.9
20260510094843 15 231 1.6 3.2 0.00 0.03 0.00 99 1011.9
20260510094344 15 0 0.0 3.2 0.00 0.03 0.00 99 1011.9
20260510093847 15 0 0.0 1.6 0.00 0.03 0.00 99 1011.8
20260510093347 15 240 0.0 1.6 0.00 0.03 0.00 99 1011.8
20260510092831 15 190 0.0 1.6 0.00 0.03 0.00 99 1011.7
20260510092331 15 0 1.6 3.2 0.00 0.03 0.00 99 1011.7
20260510092045 15 181 1.6 3.2 0.00 0.03 0.00 99 1011.6
20260510091817 15 181 1.6 3.2 0.00 0.03 0.00 99 1011.6
20260510091317 15 186 1.6 6.4 0.00 0.03 0.00 99 1011.6
20260510091031 15 181 1.6 6.4 0.00 0.03 0.00 99 1011.5
20260510090907 15 181 1.6 6.4 0.00 0.03 0.00 99 1011.5
20260510090519 15 149 1.6 4.8 0.00 0.03 0.00 99 1011.4
20260510090404 15 149 1.6 4.8 0.00 0.03 0.00 99 1011.4
20260510085802 15 231 1.6 4.8 0.00 0.03 0.00 99 1011.4
20260510085525 15 192 0.0 3.2 0.00 0.03 0.00 99 1011.2
20260510085301 15 192 0.0 3.2 0.00 0.03 0.00 99 1011.2
20260510085025 15 0 1.6 8.0 0.00 0.03 0.00 99 1011.2
20260510084907 15 0 1.6 8.0 0.00 0.03 0.00 99 1011.2
20260510084300 15 236 3.2 8.0 0.00 0.03 0.00 99 1011.2
20260510083800 15 184 1.6 4.8 0.00 0.03 0.00 99 1011.1
20260510083300 15 0 1.6 3.2 0.00 0.03 0.00 99 1011.2
20260510082747 15 242 1.6 3.2 0.00 0.03 0.00 99 1011.2
20260510082248 15 182 0.0 3.2 0.00 0.03 0.00 99 1011.1
20260510082010 15 0 1.6 6.4 0.00 0.03 0.00 99 1011.1
20260510081852 15 0 1.6 6.4 0.00 0.03 0.00 99 1011.1
20260510081246 15 0 1.6 6.4 0.00 0.03 0.00 99 1011.1
20260510081000 15 0 1.6 4.8 0.00 0.03 0.00 99 1011.1
20260510080836 15 0 1.6 4.8 0.00 0.03 0.00 99 1011.1
20260510080231 15 237 1.6 4.8 0.00 0.03 0.00 99 1011.1
20260510075733 15 164 1.6 4.8 0.00 0.03 0.00 99 1011.0
20260510075231 15 232 1.6 3.2 0.00 0.03 0.00 99 1010.9
20260510074959 15 228 1.6 3.2 0.00 0.03 0.00 99 1011.0
20260510074735 15 228 1.6 3.2 0.00 0.03 0.00 99 1011.0
20260510074231 15 0 0.0 3.2 0.00 0.03 0.00 99 1011.1
20260510073737 15 0 0.0 3.2 0.00 0.03 0.00 99 1011.0
20260510073233 15 0 1.6 3.2 0.00 0.03 0.00 99 1011.0
20260510072719 15 228 1.6 3.2 0.00 0.03 0.00 99 1011.0
20260510072216 15 162 1.6 4.8 0.00 0.03 0.00 99 1011.0
20260510071719 15 0 1.6 4.8 0.00 0.03 0.00 99 1010.9
20260510071201 15 240 0.0 3.2 0.00 0.03 0.00 99 1010.9
20260510070705 15 0 1.6 3.2 0.00 0.03 0.00 99 1011.0
20260510070423 15 178 1.6 3.2 0.00 0.03 0.00 99 1011.1
20260510070306 15 178 1.6 3.2 0.00 0.03 0.00 99 1011.1
20260510065931 15 180 1.6 4.8 0.00 0.03 0.00 99 1011.1
20260510065702 15 180 1.6 4.8 0.00 0.03 0.00 99 1011.1
20260510065203 15 209 1.6 4.8 0.00 0.03 0.00 99 1011.1
20260510064702 15 178 0.0 3.2 0.00 0.03 0.00 98 1011.0
20260510064214 15 220 1.6 6.4 0.00 0.03 0.00 99 1011.0
20260510064202 15 245 1.6 3.2 0.00 0.03 0.00 99 1011.0
20260510063704 15 220 1.6 6.4 0.00 0.03 0.00 99 1011.0
20260510063432 15 176 3.2 6.4 0.00 0.03 0.00 99 1010.9
20260510063205 15 176 3.2 6.4 0.00 0.03 0.00 99 1010.9
20260510062704 15 174 3.2 6.4 0.00 0.03 0.00 98 1010.9
20260510062205 15 240 3.2 6.4 0.00 0.03 0.00 98 1010.8
20260510061650 15 222 1.6 4.8 0.00 0.03 0.00 98 1010.8
20260510061152 15 188 1.6 4.8 0.00 0.03 0.00 98 1010.9
20260510060652 15 233 1.6 6.4 0.00 0.03 0.00 98 1010.9
20260510060152 15 245 1.6 6.4 0.00 0.03 0.00 98 1011.0
20260510055652 15 84 1.6 6.4 0.00 0.03 0.00 98 1011.2
20260510055153 15 231 1.6 4.8 0.00 0.03 0.00 98 1011.2
20260510054652 15 192 1.6 4.8 0.00 0.03 0.00 98 1011.1
20260510054152 15 0 0.0 4.8 0.00 0.03 0.00 98 1011.1
20260510053918 15 259 1.6 4.8 0.00 0.03 0.00 98 1011.2
20260510053757 15 259 1.6 4.8 0.00 0.03 0.00 98 1011.2
20260510053150 15 236 1.6 6.4 0.00 0.03 0.00 98 1011.3
20260510052635 15 231 1.6 6.4 0.00 0.03 0.00 98 1011.4
20260510052135 15 239 1.6 6.4 0.00 0.03 0.00 98 1011.5
20260510051637 15 237 1.6 4.8 0.00 0.03 0.00 98 1011.5
20260510051407 15 224 1.6 4.8 0.00 0.03 0.00 98 1011.5
20260510051240 15 224 1.6 4.8 0.00 0.03 0.00 98 1011.5
20260510050638 15 70 1.6 4.8 0.00 0.03 0.00 98 1011.5
20260510050136 16 138 1.6 4.8 0.00 0.03 0.00 98 1011.6
20260510045638 16 219 1.6 4.8 0.00 0.03 0.00 98 1011.6
20260510045121 16 246 1.6 3.2 0.00 0.03 0.00 98 1011.7
20260510044619 16 237 1.6 4.8 0.00 0.03 0.00 98 1011.6
20260510044349 16 133 1.6 4.8 0.00 0.03 0.00 98 1011.6
20260510044120 16 133 1.6 4.8 0.00 0.03 0.00 98 1011.6
20260510043603 16 231 3.2 4.8 0.00 0.03 0.00 98 1011.7
20260510043106 16 233 1.6 4.8 0.00 0.03 0.00 98 1011.6
20260510042607 16 224 1.6 3.2 0.00 0.03 0.00 97 1011.5
20260510042104 16 244 1.6 4.8 0.00 0.03 0.00 97 1011.4
20260510041555 16 265 1.6 4.8 0.00 0.03 0.00 97 1011.5
20260510041055 16 50 1.6 4.8 0.00 0.03 0.00 97 1011.5
20260510040556 16 0 1.6 6.4 0.00 0.03 0.00 97 1011.5
20260510040321 16 0 1.6 6.4 0.00 0.03 0.00 97 1011.3
20260510040204 16 0 1.6 6.4 0.00 0.03 0.00 97 1011.3
20260510035553 16 220 1.6 6.4 0.00 0.03 0.03 97 1011.3
20260510035322 16 222 3.2 6.4 0.00 0.03 0.03 97 1011.3
20260510035157 16 222 3.2 6.4 0.00 0.03 0.03 97 1011.3
20260510034605 16 239 3.2 6.4 0.00 0.03 0.03 97 1011.3
20260510034317 16 232 3.2 6.4 0.00 0.03 0.03 97 1011.3
20260510034157 16 232 3.2 6.4 0.00 0.03 0.03 97 1011.3
20260510033553 16 172 3.2 6.4 0.00 0.03 0.03 97 1011.3
20260510033053 16 238 1.6 4.8 0.00 0.03 0.03 96 1011.2
20260510032826 16 0 1.6 4.8 0.00 0.03 0.03 97 1011.1
20260510032552 16 0 1.6 4.8 0.00 0.03 0.03 97 1011.1
20260510032328 16 247 1.6 4.8 0.00 0.03 0.03 96 1011.1
20260510032050 16 247 1.6 4.8 0.00 0.03 0.03 96 1011.1
20260510031550 16 217 1.6 4.8 0.00 0.03 0.03 96 1011.1
20260510031048 16 198 1.6 4.8 0.00 0.03 0.03 96 1011.1
20260510030808 16 230 1.6 4.8 0.00 0.03 0.03 96 1011.1
20260510030653 16 230 1.6 4.8 0.00 0.03 0.03 96 1011.1
20260510030326 16 237 1.6 4.8 0.00 0.03 0.03 96 1011.1
20260510030205 16 237 1.6 4.8 0.00 0.03 0.03 96 1011.1
20260510025550 16 237 1.6 3.2 0.00 0.03 0.03 96 1011.1
20260510025048 16 246 1.6 3.2 0.00 0.03 0.03 96 1011.0
20260510025035 16 128 1.6 3.2 0.00 0.03 0.03 96 1011.0
20260510024653 16 128 1.6 3.2 0.00 0.03 0.03 96 1011.0
20260510024315 16 0 1.6 3.2 0.00 0.03 0.03 96 1010.9
20260510024153 16 0 1.6 3.2 0.00 0.03 0.03 96 1010.9
20260510023817 16 80 1.6 3.2 0.00 0.03 0.03 95 1011.0
20260510023550 16 80 1.6 3.2 0.00 0.03 0.03 95 1011.0
20260510023311 16 253 1.6 3.2 0.00 0.03 0.03 95 1010.9
20260510023048 16 253 1.6 3.2 0.00 0.03 0.03 95 1010.9
20260510022549 16 266 1.6 3.2 0.00 0.03 0.03 95 1010.9
20260510022046 17 235 0.0 3.2 0.00 0.03 0.03 95 1010.9
20260510021544 17 235 0.0 3.2 0.00 0.03 0.03 95 1010.8
20260510021302 17 63 1.6 3.2 0.00 0.03 0.03 95 1010.8
20260510021150 17 63 1.6 3.2 0.00 0.03 0.03 95 1010.8
20260510020806 17 243 1.6 4.8 0.00 0.03 0.03 94 1010.9
20260510020647 17 243 1.6 4.8 0.00 0.03 0.03 94 1010.9
20260510020056 17 228 1.6 4.8 0.00 0.03 0.03 94 1010.9
20260510015912 17 230 1.6 3.2 0.00 0.03 0.03 94 1010.9
20260510015805 17 230 1.6 3.2 0.00 0.03 0.03 94 1010.9
20260510015044 17 235 0.0 3.2 0.00 0.03 0.03 93 1010.8
20260510014542 17 0 0.0 3.2 0.00 0.03 0.03 93 1010.6
20260510014043 17 54 0.0 3.2 0.00 0.03 0.03 93 1010.5
20260510013803 17 245 0.0 3.2 0.00 0.03 0.03 93 1010.5
20260510013647 17 245 0.0 3.2 0.00 0.03 0.03 93 1010.5
20260510013044 17 228 0.0 1.6 0.00 0.03 0.03 93 1010.4
20260510012804 18 0 0.0 3.2 0.00 0.03 0.03 93 1010.4
20260510012543 18 0 0.0 3.2 0.00 0.03 0.03 93 1010.4
20260510012043 18 0 1.6 3.2 0.00 0.03 0.03 93 1010.3
20260510011810 18 236 1.6 3.2 0.00 0.03 0.03 92 1010.3
20260510011543 18 236 1.6 3.2 0.00 0.03 0.03 92 1010.3
20260510011040 18 235 0.0 3.2 0.00 0.03 0.03 92 1010.4
20260510011023 18 0 0.0 1.6 0.00 0.03 0.03 91 1010.4
20260510010915 18 0 0.0 1.6 0.00 0.03 0.03 91 1010.4
20260510010748 18 241 0.0 1.6 0.00 0.03 0.03 90 1010.4
20260510010035 18 241 0.0 1.6 0.00 0.03 0.03 90 1010.4
20260510005534 18 0 0.0 1.6 0.00 0.03 0.03 90 1010.2
20260510005252 18 174 0.0 1.6 0.00 0.03 0.03 89 1010.2
20260510005137 18 174 0.0 1.6 0.00 0.03 0.03 89 1010.2
20260510004531 18 129 0.0 1.6 0.00 0.03 0.03 89 1010.2
20260510004301 19 224 0.0 1.6 0.00 0.03 0.03 88 1010.0
20260510004032 19 224 0.0 1.6 0.00 0.03 0.03 88 1010.0
20260510003531 19 0 0.0 1.6 0.00 0.03 0.03 88 1010.0
20260510003032 19 0 0.0 1.6 0.00 0.03 0.03 88 1010.0
20260510002757 20 243 0.0 1.6 0.00 0.03 0.03 87 1010.1
20260510002638 20 243 0.0 1.6 0.00 0.03 0.03 87 1010.1
20260510002032 20 0 0.0 1.6 0.00 0.03 0.03 87 1010.1
20260510001753 20 258 0.0 1.6 0.00 0.03 0.03 86 1010.2
20260510001634 20 258 0.0 1.6 0.00 0.03 0.03 86 1010.2
20260510001256 20 0 0.0 1.6 0.00 0.03 0.03 86 1010.1
20260510001030 20 0 0.0 1.6 0.00 0.03 0.03 86 1010.1
20260510000723 20 0 0.0 1.6 0.00 0.03 0.03 85 1010.1
20260510000533 20 197 0.0 1.6 0.00 0.03 0.03 85 1010.1
20260509235517 20 0 0.0 1.6 0.00 0.03 0.03 84 1010.0
20260509235251 20 242 0.0 1.6 0.00 0.03 0.03 84 1010.0
20260509235017 20 242 0.0 1.6 0.00 0.03 0.03 84 1010.0
20260509234517 21 0 0.0 1.6 0.00 0.03 0.03 82 1009.9
20260509234017 21 0 0.0 1.6 0.00 0.03 0.03 82 1009.8
20260509233518 21 0 0.0 1.6 0.00 0.03 0.03 81 1009.6
20260509233235 21 0 0.0 0.0 0.00 0.03 0.03 80 1009.4
20260509233122 21 0 0.0 0.0 0.00 0.03 0.03 80 1009.4
20260509232518 21 0 0.0 1.6 0.00 0.03 0.03 79 1009.4
20260509232243 22 0 0.0 1.6 0.00 0.03 0.03 79 1009.6
20260509232018 22 0 0.0 1.6 0.00 0.03 0.03 79 1009.6
20260509231741 22 189 0.0 1.6 0.00 0.03 0.03 78 1009.4
20260509231620 22 189 0.0 1.6 0.00 0.03 0.03 78 1009.4
20260509231014 22 0 0.0 1.6 0.00 0.03 0.03 77 1009.4
20260509230515 22 236 0.0 3.2 0.00 0.03 0.03 76 1009.4
20260509230508 22 0 0.0 3.2 0.00 0.03 0.03 76 1009.3
20260509230117 22 0 0.0 3.2 0.00 0.03 0.03 76 1009.3
20260509225509 22 102 0.0 3.2 0.00 0.03 0.03 75 1009.2
20260509225010 22 181 0.0 1.6 0.00 0.03 0.03 75 1009.1
20260509224729 22 0 0.0 3.2 0.00 0.03 0.03 76 1009.2
20260509224614 22 0 0.0 3.2 0.00 0.03 0.03 76 1009.2
20260509224008 22 0 0.0 3.2 0.00 0.03 0.03 76 1009.4
20260509223508 22 234 0.0 3.2 0.00 0.03 0.03 75 1009.4
20260509223009 22 157 1.6 3.2 0.00 0.03 0.03 75 1009.3
20260509222508 22 228 1.6 3.2 0.00 0.03 0.03 74 1009.3
20260509222008 22 0 0.0 3.2 0.00 0.03 0.03 74 1009.4
20260509221508 22 0 0.0 3.2 0.00 0.03 0.03 73 1009.5
20260509221008 22 0 0.0 3.2 0.00 0.03 0.03 73 1009.5
20260509220506 22 0 1.6 6.4 0.00 0.03 0.03 73 1009.4
20260509220002 22 0 1.6 9.7 0.00 0.03 0.03 72 1009.4
20260509215502 23 200 3.2 9.7 0.00 0.03 0.03 72 1009.4
20260509215002 23 99 1.6 6.4 0.00 0.03 0.03 72 1009.4
20260509214502 23 192 1.6 6.4 0.00 0.03 0.03 72 1009.2
20260509214222 22 0 1.6 6.4 0.00 0.03 0.03 71 1009.2
20260509214106 22 0 1.6 6.4 0.00 0.03 0.03 71 1009.2
20260509213502 22 197 1.6 6.4 0.00 0.03 0.03 72 1009.2
20260509213222 22 258 1.6 6.4 0.00 0.03 0.03 72 1009.3
20260509213105 22 258 1.6 6.4 0.00 0.03 0.03 72 1009.3
20260509212722 22 314 1.6 4.8 0.00 0.03 0.03 71 1009.2
20260509212604 22 314 1.6 4.8 0.00 0.03 0.03 71 1009.2
20260509211958 22 293 1.6 4.8 0.00 0.03 0.03 70 1009.2
20260509211716 22 170 1.6 4.8 0.00 0.03 0.03 72 1009.2
20260509211601 22 170 1.6 4.8 0.00 0.03 0.03 72 1009.2